Delta Virtual Airport Information Service

Denver International Airport

ICAO: KDEN Country: United States
Latitude: 39.8616 Longitude: -104.673
Latest Arrival : SWA169 (KBOS-KDEN) Latest Departure : UAL1970 (KDEN-KBZN)


WX CaptureLIVE
Data provided by noaa.gov | Fetched at 12:46:24

METAR : KDEN 281653Z 03010KT 10SM FEW090 09/M07 A3026 RMK AO2 SLP222 T00891072

TAF : KDEN 281459Z 2815/2918 36008KT P6SM FEW080 FM281600 02012G18KT P6SM FEW090 FM290000 07008KT P6SM FEW090 FM290200 15007KT P6SM FEW090 FM290400 21009KT P6SM SKC FM291600 17007KT P6SM SKC


Runway Data for KDEN
Data provided by openaviationdata.com

Runway ID Mag Var Hdg Length Elevation Surface ILS Freq ILS Id ILS Slope
7 11 79° 11980 ft 5324 ft Concrete 111.55 IDZG 3
8 11 79° 11980 ft 5324 ft Concrete 108.9 IFUI 3
16L 11 169° 12007 ft 5324 ft Concrete 111.1 ILTT 3
16R 11 169° 16011 ft 5324 ft Concrete 111.9 IDQQ 3
17L 11 169° 12008 ft 5324 ft Concrete 110.15 IBXP 3
17R 11 169° 12007 ft 5324 ft Concrete 108.5 IACX 3
25 11 259° 11980 ft 5324 ft Concrete 111.55 IERP 3
26 11 259° 11980 ft 5324 ft Concrete 108.9 IJOY 3
34L 11 349° 16011 ft 5324 ft Concrete 111.9 IDXU 3
34R 11 349° 12007 ft 5324 ft Concrete 111.1 IOUF 3
35L 11 349° 12007 ft 5324 ft Concrete 108.5 IAQD 3
35R 11 349° 12008 ft 5324 ft Concrete 110.15 IDPP 3

Denver International Airport, United States
Use only for reference purposes



Not for navigational purposes.